Tracking 25648 objects as of 16-May-2022
HD Live streaming from Space Station
objects crossing your sky now

COSMOS 2251 DEB

Track COSMOS 2251 DEB now!
10-day predictions


NORAD ID: 38065
Int'l Code: 1993-036BRX
Perigee: 707.3 km
Apogee: 732.5 km
Inclination: 74.0 °
Period: 99.0 minutes
Semi major axis: 7090 km
RCS: 0.0159 m2 (small)
Launch date: June 16, 1993
Source: Commonwealth of Independent States (former USSR) (CIS)
Launch site: PLESETSK MISSILE AND SPACE COMPLEX (PKMTR)

Note: This is SATELLITE DEBRIS
aabbcc
Your satellite tracking list
Your tracking list is empty




NASA's NSSDC Master Catalog

Two Line Element Set (TLE):
1 38065U 93036BRX 22135.80220181  .00009893  00000-0  23473-2 0  9998
2 38065  74.0325  30.5342 0017812  63.8360   6.4933 14.53955518530556
Source of the keplerian elements: AFSPC